STARLINK-31663, 59576

Orbit data source: Space-Track

STARLINK-31663, 59576 is a payload satellite owned by SpaceX/Seattle (US) in LEO that was launched on Tue, 23 Apr 2024 UTC via an FALCON 9 launch vehicle from the Air Force Eastern Test Range (AFETR). Payload-class satellites include a variety of spacecraft equipped with specific instruments for various scientific and technological missions. These include communications satellites like Starlink; space stations such as the ISS; scientific satellites like the Hubble; Earth observation satellites from companies like Planet Labs, Umbra, and HawkEye 360; GPS; miniature CubeSats for education and research; and military/defense satellites.

Loading next visibility...
Identifier
59576, 2024-076N
Orbit
LEO
Country
Flag of USUS
Related business
Manufacturer
SpaceX/Seattle
Mission
Operational spacecraft
Bus & Motor
STARLINK V2M, Unknown motor
Mass
730 kg wet, ~700 kg dry
Launch date (UTC)
2024-04-23 (1 year ago)
Launch vehicle
FALCON 9
Launch site
Air Force Eastern Test Range (AFETR)
Object type
Payload
Rocket body
Debris
Shape & HBR
Unknown
Radar Cross Section
Large (>1 m²)

Expand to show TLE details & history
Last TLE update: 14 hours ago

TLE from 14 hours ago
0 STARLINK-31663
1 59576U 24076N   25261.03066695 -.00004026  00000-0 -13689-3 0  9996
2 59576  43.0014 264.3516 0000208 268.7979  91.2848 15.27573853 80096
Epoch: 2025-09-18T00:44Z
TLE epoch observation values (Epoch: 2025-09-18T00:44:09.624Z)
Latitude
-0.00008°
Longitude
-103.88669°
Altitude
482.846 km
Speed
7.626 km/s
True Right ascension
17h 37m 24s
True Declination
0° 00' 00"
Sunlit
Object was in daylight at epoch
Visualization orbit readout
Latitude
Unknown
Longitude
Unknown
Altitude
Unknown
Speed
Unknown
Apparent Right ascension
Unknown
Apparent Declination
Unknown
Sunlit
N/A
Visualization observer readout
Local Sidereal Time
07:56:07
Azimuth
Unknown
Elevation
Unknown
Doppler factor
Unknown
Orbital elements
Apogee altitude
485.155 km
Perigee altitude
484.87 km
Semi-major axis
6,863.149 km
Eccentricity
0.00002
Inclination
43.0014°
RAAN
264.3516°
Arg. of periapsis
268.7979°
True anomaly
91.28718°
Mean anomaly
91.2848°
Eccentric anomaly
91.28599°
Mean motion
3.81731 °/min
Orbital period
94.31 mins
BSTAR
-0.00013689
Loading maneuver chart data...
Computing Atmospheric mass density...
Loading historical data...
Loading historical data...
Loading historical data...
Loading historical data...
Loading historical data...
Loading historical data...
Loading historical data...

Documentation

Showing up to 5 results
|